FW7688 Weather Reports


time (UTC)temp
F
wind
direction
speed
knots
gust
knots
rain 1hr
in
rain 24hr
in
rain mn
in
humidity
%
barometer
mb
20260510174546 70 240 0.0 4.3 0.00 0.25 0.00 65 1014.2
20260510173028 70 90 0.0 2.6 0.00 0.25 0.00 62 1014.0
20260510171528 70 205 0.0 1.7 0.00 0.25 0.00 66 1014.4
20260510170031 69 143 0.0 3.5 0.00 0.25 0.00 67 1014.2
20260510164523 68 227 0.0 2.6 0.00 0.25 0.00 71 1014.0
20260510163021 67 117 0.0 3.5 0.00 0.25 0.00 73 1014.3
20260510161516 65 238 0.0 0.0 0.00 0.25 0.00 76 1014.5
20260510160021 65 263 0.0 2.6 0.00 0.25 0.00 74 1014.5
20260510154512 65 189 0.9 3.5 0.00 0.26 0.00 73 1014.5
20260510153009 64 226 0.0 2.6 0.00 0.26 0.00 77 1014.4
20260510151506 63 165 0.9 3.5 0.00 0.26 0.00 80 1014.5
20260510150007 63 260 0.9 2.6 0.00 0.26 0.00 80 1014.5
20260510144503 62 233 0.0 3.5 0.00 0.26 0.00 82 1014.4
20260510143003 62 279 0.9 4.3 0.00 0.26 0.00 82 1014.6
20260510141557 60 206 0.0 3.5 0.00 0.26 0.00 84 1014.3
20260510140055 59 196 0.0 2.6 0.00 0.26 0.00 88 1014.4
20260510134555 57 259 0.0 2.6 0.00 0.27 0.00 92 1014.5
20260510133048 55 212 0.9 2.6 0.00 0.27 0.00 96 1014.5
20260510131544 53 228 0.0 0.0 0.00 0.27 0.00 97 1014.5
20260510130041 52 73 0.0 0.0 0.00 0.27 0.00 97 1014.4
20260510124538 52 123 0.0 0.0 0.00 0.27 0.00 97 1014.4
20260510123036 51 122 0.0 0.0 0.00 0.27 0.00 97 1014.2
20260510121535 51 123 0.0 0.0 0.00 0.27 0.00 97 1014.0
20260510120035 51 123 0.0 0.0 0.00 0.27 0.00 98 1013.9
20260510114537 51 123 0.0 0.0 0.00 0.27 0.00 98 1013.9
20260510113029 50 123 0.0 0.0 0.00 0.27 0.00 98 1013.5
20260510111529 50 177 0.0 0.0 0.00 0.27 0.00 98 1013.4
20260510110032 50 206 0.0 0.0 0.00 0.27 0.00 97 1013.5
20260510104527 49 236 0.0 0.0 0.00 0.27 0.00 97 1013.0
20260510103028 49 237 0.0 0.0 0.00 0.27 0.00 97 1013.1
20260510101527 49 181 0.0 0.9 0.00 0.27 0.00 97 1012.9
20260510100032 49 143 0.0 0.0 0.00 0.27 0.00 97 1013.1
20260510094530 49 129 0.0 1.7 0.00 0.27 0.00 97 1012.6
20260510093036 49 136 0.0 0.0 0.00 0.27 0.00 97 1012.6
20260510091523 49 115 0.0 0.0 0.00 0.27 0.00 97 1012.6
20260510090024 49 125 0.0 0.0 0.00 0.27 0.00 97 1012.8
20260510084529 49 123 0.0 0.0 0.00 0.27 0.00 97 1012.8
20260510083020 49 123 0.0 0.0 0.00 0.27 0.00 97 1012.9
20260510081525 49 123 0.0 0.0 0.00 0.27 0.00 97 1013.1
20260510080021 50 123 0.0 0.0 0.00 0.27 0.00 97 1013.3
20260510074520 50 123 0.0 0.0 0.00 0.28 0.00 97 1013.5
20260510073022 50 254 0.0 0.0 0.00 0.28 0.00 97 1013.4
20260510071532 49 254 0.0 0.0 0.00 0.28 0.00 97 1013.3
20260510070018 50 254 0.0 0.0 0.00 0.28 0.00 97 1012.7
20260510064514 50 248 0.0 0.0 0.00 0.28 0.00 97 1012.6
20260510063020 50 245 0.0 0.0 0.00 0.28 0.00 97 1012.8
20260510061526 50 253 0.0 0.0 0.00 0.28 0.00 97 1013.1
20260510060012 50 253 0.0 0.0 0.00 0.28 0.00 97 1012.9
20260510054510 50 253 0.0 0.0 0.00 0.28 0.00 97 1012.7
20260510053009 50 253 0.0 0.0 0.00 0.28 0.00 97 1012.6
20260510051509 50 336 0.0 0.0 0.00 0.28 0.00 97 1012.6
20260510050011 50 335 0.0 0.0 0.00 0.28 0.00 97 1012.6
20260510044507 50 79 0.0 0.0 0.00 0.28 0.00 97 1012.6
20260510043013 50 191 0.0 0.0 0.00 0.28 0.00 97 1012.7
20260510041505 50 191 0.0 0.0 0.00 0.28 0.00 97 1012.7
20260510040003 50 211 0.0 0.0 0.00 0.28 0.28 97 1012.7
20260510034503 50 226 0.0 0.0 0.00 0.28 0.28 97 1012.5
20260510033001 50 226 0.0 0.0 0.00 0.28 0.28 97 1012.5
20260510031502 50 245 0.0 0.0 0.00 0.28 0.28 97 1012.6
20260510030100 50 253 0.0 0.0 0.00 0.28 0.28 97 1012.8
20260510030004 50 253 0.0 0.0 0.00 0.28 0.28 97 1012.8
20260510024603 50 240 0.0 0.0 0.00 0.28 0.28 97 1012.8
20260510023059 50 186 0.0 0.0 0.00 0.28 0.28 97 1012.6
20260510023001 50 186 0.0 0.0 0.00 0.28 0.28 97 1012.6
20260510021603 50 241 0.0 0.0 0.00 0.28 0.28 97 1012.8
20260510020058 50 241 0.0 0.0 0.00 0.28 0.28 97 1012.7
20260510014557 50 241 0.0 0.0 0.00 0.28 0.28 97 1012.7
20260510013058 50 233 0.0 0.0 0.00 0.28 0.28 97 1012.5
20260510011558 50 242 0.0 0.0 0.00 0.28 0.28 96 1012.4
20260510010055 50 229 0.0 0.0 0.00 0.28 0.28 96 1012.3
20260510004556 50 260 0.0 0.9 0.00 0.28 0.28 96 1012.0
20260510003110 50 243 0.0 0.0 0.00 0.28 0.28 96 1011.9
20260510001554 50 257 0.0 0.0 0.00 0.28 0.28 96 1011.7
20260510000100 51 257 0.0 0.0 0.00 0.28 0.28 96 1011.6
20260509234603 51 219 0.0 0.9 0.00 0.28 0.28 96 1011.5
20260509233052 51 270 0.0 0.0 0.00 0.28 0.28 96 1011.6
20260509231554 51 259 0.0 1.7 0.01 0.28 0.28 96 1011.7
20260509230059 51 227 0.0 2.6 0.01 0.28 0.28 96 1011.6
20260509224549 51 134 0.0 3.5 0.01 0.28 0.28 96 1011.6
20260509223049 51 124 0.0 0.0 0.01 0.28 0.28 96 1011.7
20260509221547 51 159 0.0 0.0 0.01 0.28 0.28 95 1011.8
20260509220047 51 212 0.0 0.0 0.03 0.28 0.28 95 1012.2
20260509214545 51 155 0.0 1.7 0.07 0.28 0.28 95 1012.4
20260509213044 51 242 0.0 0.0 0.09 0.28 0.28 95 1012.4
20260509211545 51 233 0.0 0.0 0.10 0.27 0.27 95 1012.3
20260509210049 51 228 0.0 0.0 0.09 0.24 0.24 95 1012.4
20260509204544 52 227 0.0 0.9 0.07 0.21 0.21 94 1012.4
20260509203042 52 227 0.0 0.9 0.06 0.19 0.19 94 1012.5
20260509201543 52 247 0.0 1.7 0.06 0.17 0.17 94 1012.6
20260509200040 53 234 0.0 0.0 0.05 0.15 0.15 94 1012.7
20260509194539 53 234 0.0 0.9 0.06 0.14 0.14 94 1012.8
20260509193039 53 243 0.0 0.9 0.08 0.13 0.13 94 1012.9
20260509191540 54 257 0.0 1.7 0.06 0.11 0.11 94 1013.2
20260509190044 54 249 0.0 1.7 0.05 0.10 0.10 93 1013.4
20260509184536 55 251 0.0 2.6 0.04 0.08 0.08 92 1013.1
20260509183045 55 193 0.0 0.0 0.01 0.05 0.05 91 1012.8
20260509181544 55 193 0.0 0.0 0.01 0.05 0.05 91 1012.7
20260509180034 55 245 0.0 0.0 0.00 0.04 0.04 92 1012.6